This is the latest recevied weather packets stored in our database for station/object KQ4OSL. If no packets are shown the sender has not sent any weather packets the latest 10 day(s).
| Time | Temp. | Humidity | Pressure | Rain* | Wind** | Luminosity | Snow |
|---|---|---|---|---|---|---|---|
| 1787606863 | 31.11° C | 55% | 1017.5 hPa | 0 mm | - | 316 W/m² | - |
| 1787606561 | 31.11° C | 54% | 1017.6 hPa | 0 mm | - | 330 W/m² | - |
| 1787606261 | 31.67° C | 53% | 1017.6 hPa | 0 mm | - | 342 W/m² | - |
| 1787605960 | 31.67° C | 53% | 1017.5 hPa | 0 mm | - | 358 W/m² | - |
| 1787605659 | 32.22° C | 59% | 1017.6 hPa | 0 mm | - | 372 W/m² | - |
| 1787605355 | 32.22° C | 50% | 1017.6 hPa | 0 mm | - | 401 W/m² | - |
| 1787605050 | 31.11° C | 55% | 1017.6 hPa | 0 mm | - | 421 W/m² | - |
| 1787604750 | 31.11° C | 54% | 1017.6 hPa | 0 mm | - | 434 W/m² | - |
| 1787604445 | 31.67° C | 54% | 1017.4 hPa | 0 mm | - | 108 W/m² | - |
| 1787604140 | 31.11° C | 55% | 1017.7 hPa | 0 mm | - | 429 W/m² | - |
| 1787603839 | 31.11° C | 55% | 1017.7 hPa | 0 mm | - | 433 W/m² | - |
| 1787603534 | 31.67° C | 56% | 1017.7 hPa | 0 mm | - | 461 W/m² | - |
| 1787603230 | 31.67° C | 54% | 1017.7 hPa | 0 mm | - | 488 W/m² | - |
| 1787602926 | 31.67° C | 51% | 1018 hPa | 0 mm | - | 497 W/m² | - |
| 1787602621 | 31.67° C | 58% | 1017.9 hPa | 0 mm | - | 466 W/m² | - |
| 1787602316 | 31.67° C | 55% | 1017.6 hPa | 0 mm | - | 511 W/m² | - |
| 1787602016 | 31.67° C | 51% | 1018.1 hPa | 0 mm | - | 551 W/m² | - |
| 1787601710 | 32.78° C | 52% | 1018.1 hPa | 0 mm | - | 559 W/m² | - |
| 1787601406 | 32.78° C | 54% | 1018 hPa | 0 mm | - | 580 W/m² | - |
| 1787601105 | 31.67° C | 51% | 1018 hPa | 0 mm | - | 590 W/m² | - |
| 1787600804 | 32.22° C | 54% | 1017.9 hPa | 0 mm | - | 591 W/m² | - |
| 1787600500 | 31.11° C | 54% | 1018.2 hPa | 0 mm | - | 604 W/m² | - |
| 1787600196 | 31.67° C | 54% | 1018.3 hPa | 0 mm | - | 582 W/m² | - |
| 1787599893 | 31.11° C | 53% | 1018.3 hPa | 0 mm | - | 604 W/m² | - |
| 1787599589 | 30° C | 56% | 1018.5 hPa | 0 mm | - | 624 W/m² | - |
* Rain latest hour (hover to see other rain measurements)
** Current wind speed in m/s (hover to see current wind gust speed)